Terminal Aerodrome Forecast
Issued by NWS Lake Charles, LA

Home | Current Version | Previous Version | Text Only | Print | Product List | Glossary On
Versions: 1 2 3 4 5 6 7 8 9 10 11 12 13 14 15 16
628
FTUS44 KLCH 220531
TAFLFT
TAF
KLFT 220531Z 2206/2306 17008KT P6SM OVC007
     FM221500 16008KT P6SM OVC015
     FM221800 18010G18KT P6SM BKN025
     FM230100 17004KT P6SM OVC015=

USA.gov is the U.S. government's official web portal to all federal, state and local government web resources and services.